Flag for Italy Weather past 2 weeks in Ancona, Italy

Now
55 °F

Partly sunny.


Feels Like: 55 °F
Forecast: 56 / 70 °F
Wind: 5 mph from Southwest

Location: Falconara

Current Time: May 24, 2015 at 7:27:29 AM

Latest Report: May 24, 2015 at 6:50 AM


Visibility: N/A

Pressure: 29.92 "Hg

Humidity: 100%

Dew point: 55 °F

Location of AnconaLocation

Historic Weather in Ancona — Graph

°F

Ancona temperature yesterday

Maximum temperature yesterday: 63 °F (at 11:50 AM)
Minimum temperature yesterday: 52 °F (at 2:50 AM)
Average temperature yesterday: 58 °F

Past Weeks' High & Low Weather Summary

 TemperatureHumidityPressure
High86 °F (May 14, 2:50 PM)100% (May 16, 3:50 AM)30.30 "Hg (May 16, 3:50 AM)
Low52 °F (May 11, 4:50 AM)25% (May 12, 3:50 PM)29.68 "Hg (May 15, 7:50 PM)
Average66 °F70%29.96 "Hg
* Reported May 9 5:50 AM — May 24 5:50 AM, Ancona, Weather by CustomWeather, © 2015

Note: Actual official high and low records may vary slightly from our data, if they occured in-between our weather recording intervals... More about our weather records

Advertising

Ancona weather history for previous 24 hours

 ConditionsComfort  
Time TempWeatherWind HumidityBarometerVisibility
5:50 AM
Sun, May 24
55 °FPartly cloudy.3 mph94%29.92 "HgN/A
4:50 AM55 °FLight rain. Partly cloudy.5 mph100%29.89 "HgN/A
3:50 AM55 °FLight rain. Partly cloudy.3 mph100%29.92 "HgN/A
2:50 AM55 °FLight rain. Partly cloudy.3 mph100%29.92 "HgN/A
1:50 AM55 °FLight rain. Partly cloudy.3 mph100%29.92 "HgN/A
12:50 AM55 °FLight rain. Passing clouds.1 mph100%29.92 "HgN/A
11:50 PM
Sat, May 23
57 °FLight rain. Passing clouds.3 mph94%29.92 "HgN/A
10:50 PM57 °FLight rain. Passing clouds.2 mph94%29.92 "HgN/A
9:50 PM57 °FLight rain. Passing clouds.2 mph94%29.92 "HgN/A
8:50 PM57 °FLight rain. Partly sunny.2 mph94%29.89 "HgN/A
7:50 PM57 °FPartly sunny.3 mph94%29.89 "HgN/A
6:50 PM57 °FLight rain. Partly sunny.5 mph94%29.89 "HgN/A
5:50 PM61 °FLight rain. Partly sunny.2 mph83%29.89 "HgN/A
4:50 PM63 °FPartly sunny.6 mph73%29.86 "HgN/A
3:50 PM63 °FPartly sunny.3 mph77%29.86 "HgN/A
2:50 PM63 °FScattered clouds.3 mph73%29.86 "HgN/A
1:50 PM63 °FScattered clouds.7 mph73%29.86 "HgN/A
12:50 PM63 °FScattered clouds.12 mph83%29.86 "HgN/A
11:50 AM63 °FScattered clouds.9 mph77%29.86 "HgN/A
10:50 AM59 °FScattered clouds.7 mph88%29.83 "HgN/A
9:50 AM61 °FScattered clouds.3 mph88%29.83 "HgN/A
8:50 AM57 °FPartly sunny.5 mph94%29.83 "HgN/A
7:50 AM55 °FPartly sunny.6 mph94%29.83 "HgN/A
Weather by CustomWeather, © 2015

See weather overviewHow to use our weather pages